Forrest,

2:08 PM AWST on October 17, 2017 (GMT +0800)
Forrest

Weather History for YFRT - December, 2012

Change the Weather History Date:

Wednesday, December 5, 2012

  Actual Average Record
Temperature  
Mean Temperature 70 °F -  
Max Temperature 90 °F - - ()
Min Temperature 50 °F - - ()
Cooling Degree Days 5    
Growing Degree Days 20 (Base 50)    
Moisture  
Dew Point 39 °F    
Average Humidity 37    
Maximum Humidity 94    
Minimum Humidity 4    
Precipitation  
Precipitation 0.00 in - - ()
Sea Level Pressure  
Sea Level Pressure 30.02 in    
Wind  
Wind Speed 12 mph ()    
Max Wind Speed 23 mph    
Max Gust Speed -    
T = Trace of Precipitation, MM = Missing Value Source: Averaged Metar Reports

Daily Weather History Graph

Daily Weather History Graph

Search for Another Location

Airport or City:

Trip Planner

Search our weather history database for the weather conditions in past years. The results will help you decide how hot, cold, wet, or windy it might be!

Date:

Astronomy

Dec. 05, 2012 Rise Set
Actual Time 4:16 AM AWST 6:19 PM AWST
Civil Twilight 3:49 AM AWST 6:47 PM AWST
Nautical Twilight 3:16 AM AWST 7:20 PM AWST
Astronomical Twilight 2:40 AM AWST 7:56 PM AWST
Moon 10:50 PM AWST (12/5) 9:50 AM AWST (12/5)
Length of Visible Light 14h 57m
Length of Day
14h 02m
Waning Gibbous, 65% of the Moon is Illuminated
Dec 5
Waning Gibbous
Dec 6
Last Quarter
Dec 13
New
Dec 20
First Quarter
Dec 28
Full

Hourly Weather History & Observations

Time (AWST) Temp. Dew Point Humidity Pressure Visibility Wind Dir Wind Speed Gust Speed Precip Events Conditions
12:00 AM 57 °F 48 °F 63% 30.11 in - East 13.8 mph - -  
12:00 AM 57.2 °F 48.2 °F 72% 30.12 in - East 13.8 mph - N/A   Unknown
1:00 AM 55.4 °F 48.2 °F 77% 30.09 in - East 11.5 mph - N/A   Unknown
2:00 AM 54 °F 48 °F 72% 30.09 in - East 9.2 mph - -  
2:00 AM 53.6 °F 48.2 °F 82% 30.09 in - East 9.2 mph - N/A   Unknown
3:00 AM 53 °F 48 °F 78% 30.09 in - East 9.2 mph - -  
3:00 AM 51.8 °F 48.2 °F 88% 30.09 in - East 9.2 mph - N/A   Unknown
4:00 AM 50.0 °F 48.2 °F 94% 30.09 in - East 6.9 mph - N/A   Unknown
5:00 AM 53 °F 51 °F 88% 30.11 in - East 10.4 mph - -  
5:00 AM 53.6 °F 50.0 °F 88% 30.12 in - East 10.4 mph - N/A   Unknown
5:39 AM 57.2 °F 46.4 °F 67% 30.12 in - ENE 19.6 mph - N/A   Unknown
6:00 AM 58 °F 47 °F 57% 30.12 in - ENE 21.9 mph - -  
6:00 AM 57.2 °F 46.4 °F 67% 30.12 in - ENE 21.9 mph - N/A   Unknown
7:00 AM 62.6 °F 46.4 °F 55% 30.12 in - ENE 20.7 mph - N/A   Unknown
8:00 AM 68 °F 44 °F 30% 30.11 in - ENE 16.1 mph - -  
8:00 AM 68.0 °F 44.6 °F 43% 30.12 in - ENE 16.1 mph - N/A   Unknown
9:00 AM 73 °F 40 °F 20% 30.09 in - NE 15.0 mph - -  
9:00 AM 73.4 °F 41.0 °F 31% 30.09 in - NE 15.0 mph - N/A   Unknown
10:00 AM 78.8 °F 37.4 °F 23% 30.06 in - NE 12.7 mph - N/A   Unknown
11:00 AM 82 °F 33 °F 9% 30.04 in - ENE 12.7 mph - -  
11:00 AM 82.4 °F 33.8 °F 17% 30.04 in - ENE 12.7 mph - N/A   Unknown
12:00 PM 85 °F 28 °F 6% 30.01 in - East 5.8 mph - -  
12:00 PM 84.2 °F 28.4 °F 13% 30.01 in - East 5.8 mph - N/A   Unknown
1:00 PM 87.8 °F 24.8 °F 10% 29.98 in - NE 11.5 mph - N/A   Unknown
2:00 PM 90 °F 23 °F 4% 29.94 in - East 6.9 mph - -  
2:00 PM 89.6 °F 23.0 °F 9% 29.95 in - East 6.9 mph - N/A   Unknown
3:00 PM 89 °F 23 °F 4% 29.93 in - East 8.1 mph - -  
3:00 PM 87.8 °F 23.0 °F 9% 29.95 in - East 8.1 mph - N/A   Unknown
4:00 PM 89.6 °F 23.0 °F 9% 29.92 in - East 10.4 mph - N/A   Unknown
5:00 PM 88 °F 25 °F 4% 29.92 in - East 6.9 mph - -  
5:00 PM 87.8 °F 24.8 °F 10% 29.92 in - East 6.9 mph - N/A   Unknown
6:00 PM 87 °F 26 °F 5% 29.92 in - East 10.4 mph - -  
6:00 PM 86.0 °F 26.6 °F 12% 29.92 in - East 10.4 mph - N/A   Unknown
6:53 PM 80.6 °F 41.0 °F 24% 29.95 in - SE 17.3 mph - N/A   Unknown
7:00 PM 80.6 °F 42.8 °F 26% 29.95 in - SE 19.6 mph - N/A   Unknown
7:33 PM 78.8 °F 44.6 °F 30% 29.95 in - East 23.0 mph - N/A   Unknown
8:00 PM 78 °F 44 °F 19% 29.94 in - East 21.9 mph - -  
8:00 PM 77.0 °F 44.6 °F 32% 29.95 in - East 21.9 mph - N/A   Unknown
9:00 PM 75.2 °F 46.4 °F 36% 29.95 in - East 20.7 mph - N/A   Unknown
11:00 PM 72 °F 39 °F 20% 29.91 in - ESE 10.4 mph - -  
11:00 PM 73.4 °F 39.2 °F 29% 29.92 in - ESE 10.4 mph - N/A   Unknown